This demonstration page uses our WeatherBlox Daily Observations layout. Learn more.

Left ArrowRight Arrow

31.84235, -102.49876

Hourly Observations for May 30, 2021

Temp ( °F °C ) Dew Point ( °F °C ) Humidity (%) Winds ( mph kmh ) Pressure ( in mb ) Visibility ( mi km ) Precip ( " mm )
12:53 am 00:53 Clear 70 21.1 60 15.6 71 71 SE 15 24 29.91 1013 10 16 0.00 0.00
1:53 am 01:53 Clear 68 20 61 16.1 78 78 ESE 17 28 29.90 1012 10 16 0.00 0.00
2:53 am 02:53 Clear 67 19.4 62 16.7 84 84 SE 14 22 29.88 1012 10 16 0.00 0.00
3:53 am 03:53 Clear 67 19.4 61 16.1 81 81 SE 14 22 29.88 1012 10 16 0.00 0.00
4:40 am 04:40 Mostly Cloudy 67 19.4 61 16.1 81 81 SE 12 19 29.91 1013 10 16 0.00 0.00
4:53 am 04:53 Cloudy 67 19.4 61 16.1 81 81 SE 10 17 29.89 1012 10 16 0.00 0.00
5:39 am 05:39 Partly Cloudy 66 18.9 61 16.1 84 84 SE 12 19 29.92 1013 10 16 0.00 0.00
5:53 am 05:53 Partly Cloudy 66 18.9 61 16.1 84 84 SE 8 13 29.91 1013 10 16 0.00 0.00
6:16 am 06:16 Mostly Cloudy 66 18.9 61 16.1 84 84 SE 10 17 29.94 1014 10 16 0.00 0.00
6:53 am 06:53 Mostly Cloudy 66 18.9 61 16.1 84 84 S 12 19 29.96 1015 10 16 0.00 0.00
7:38 am 07:38 Cloudy 66 18.9 61 16.1 84 84 S 14 22 29.99 1016 10 16 0.00 0.00
7:53 am 07:53 Mostly Cloudy 66 18.9 61 16.1 84 84 S 10 17 29.96 1015 10 16 0.00 0.00
8:53 am 08:53 Sunny 66 18.9 61 16.1 84 84 SE 14 22 29.93 1014 10 16 0.00 0.00
9:53 am 09:53 Partly Cloudy 67 19.4 61 16.1 81 81 S 8 13 29.99 1016 10 16 0.00 0.00
10:01 am 10:01 Mostly Cloudy 67 19.4 61 16.1 81 81 S 9 15 30.00 1016 10 16 0.00 0.00
10:25 am 10:25 Mostly Cloudy 67 19.4 61 16.1 81 81 S 12 19 30.00 1016 10 16 0.00 0.00
10:32 am 10:32 Mostly Cloudy 67 19.4 61 16.1 81 81 SSE 10 17 30.00 1016 10 16 0.00 0.00
10:53 am 10:53 Cloudy 68 20 61 16.1 78 78 SSE 15 24 29.98 1015 10 16 0.00 0.00
11:41 am 11:41 Partly Cloudy 69 20.6 62 16.7 78 78 SSE 28 44 29.92 1013 10 16 0.00 0.00
11:53 am 11:53 Sunny 70 21.1 62 16.7 76 76 SSE 26 43 29.93 1014 10 16 0.00 0.00
12:39 pm 12:39 Mostly Cloudy 71 21.7 62 16.7 73 73 SE 20 31 29.89 1012 10 16 0.00 0.00
12:53 pm 12:53 Mostly Cloudy 71 21.7 62 16.7 73 73 SSE 21 33 29.92 1013 10 16 0.00 0.00
1:08 pm 13:08 Mostly Sunny 71 21.7 62 16.7 73 73 SSE 16 26 29.89 1012 10 16 0.00 0.00
1:53 pm 13:53 Mostly Sunny 74 23.3 62 16.7 67 67 SSE 17 28 29.91 1013 10 16 0.00 0.00
2:14 pm 14:14 Mostly Cloudy 77 25 61 16.1 58 58 S 24 39 29.85 1011 10 16 0.00 0.00
2:26 pm 14:26 Mostly Cloudy 79 26.1 60 15.6 52 52 SSE 26 43 29.85 1011 10 16 0.00 0.00
2:53 pm 14:53 Mostly Cloudy 80 26.7 59 15 49 49 S 25 41 29.90 1012 10 16 0.00 0.00
3:53 pm 15:53 Mostly Cloudy 81 27.2 58 14.4 45 45 S 21 33 29.87 1011 10 16 0.00 0.00
4:53 pm 16:53 Sunny 82 27.8 59 15 46 46 SSE 23 37 29.85 1011 10 16 0.00 0.00
5:53 pm 17:53 Mostly Sunny 80 26.7 57 13.9 45 45 SSE 21 33 29.84 1011 10 16 0.00 0.00
6:53 pm 18:53 Partly Cloudy 76 24.4 57 13.9 52 52 S 20 31 29.88 1012 10 16 0.00 0.00
7:53 pm 19:53 Sunny 73 22.8 59 15 62 62 SE 12 19 29.89 1012 10 16 0.00 0.00
8:53 pm 20:53 Mostly Clear 72 22.2 59 15 64 64 ESE 12 19 29.91 1013 10 16 0.00 0.00
9:53 pm 21:53 Mostly Cloudy 71 21.7 60 15.6 68 68 SE 9 15 29.91 1013 10 16 0.00 0.00
10:53 pm 22:53 Mostly Clear 70 21.1 60 15.6 71 71 E 8 13 29.93 1014 10 16 0.00 0.00
11:53 pm 23:53 Clear 70 21.1 60 15.6 71 71 ESE 9 15 29.93 1014 10 16 0.00 0.00

Powered by AerisWeather